• In Uzbekistan
  • List of Countries
  • For 7 days
  • Water Temperature
  • Satellite Maps
  • Weather Map
  • Weather Widgets
  • user-avatar
    Login

    Hourly Weather Charlottetown

    Today, 27 May, Sunday

    Time Temperature Precipitation Wind Pressure Humidity
    00:00 +1°C° 0 mm 4 mps 764 mmHg 90%
    01:00 +2°C° 0 mm 3 mps 765 mmHg 89%
    02:00 +2°C° 0 mm 3 mps 765 mmHg 89%
    03:00 +2°C° 0 mm 3 mps 766 mmHg 89%
    04:00 +2°C° 0 mm 3 mps 766 mmHg 88%
    05:00 +2°C° 0 mm 3 mps 767 mmHg 88%
    06:00 +5°C° 0 mm 2 mps 768 mmHg 83%
    07:00 +6°C° 0 mm 2 mps 768 mmHg 77%
    08:00 +8°C° 0 mm 1 mps 769 mmHg 70%
    09:00 +8°C° 0 mm 2 mps 769 mmHg 67%
    10:00 +9°C° 0 mm 2 mps 769 mmHg 64%
    11:00 +10°C° 0 mm 2 mps 769 mmHg 61%
    12:00 +10°C° 0 mm 2 mps 769 mmHg 60%
    13:00 +12°C° 0 mm 2 mps 769 mmHg 58%
    14:00 +12°C° 0 mm 2 mps 768 mmHg 57%
    15:00 +12°C° 0 mm 2 mps 768 mmHg 57%
    16:00 +12°C° 0 mm 2 mps 768 mmHg 57%
    17:00 +11°C° 0 mm 3 mps 768 mmHg 57%
    18:00 +10°C° 0 mm 3 mps 768 mmHg 60%
    19:00 +8°C° 0 mm 4 mps 768 mmHg 62%
    20:00 +7°C° 0 mm 4 mps 768 mmHg 65%
    21:00 +6°C° 0 mm 4 mps 768 mmHg 64%
    22:00 +6°C° 0 mm 5 mps 768 mmHg 63%
    23:00 +5°C° 0 mm 5 mps 769 mmHg 62%

    Tomorrow, 28 May, Monday

    Time Temperature Precipitation Wind Pressure Humidity
    00:00 +5°C° 0 mm 5 mps 768 mmHg 66%
    01:00 +5°C° 0 mm 4 mps 768 mmHg 70%
    02:00 +4°C° 0 mm 4 mps 768 mmHg 74%
    03:00 +4°C° 0 mm 4 mps 768 mmHg 75%
    04:00 +4°C° 0 mm 4 mps 767 mmHg 76%
    05:00 +3°C° 0 mm 4 mps 767 mmHg 78%
    06:00 +5°C° 0 mm 4 mps 767 mmHg 74%
    07:00 +6°C° 0 mm 4 mps 767 mmHg 70%
    08:00 +7°C° 0 mm 4 mps 766 mmHg 67%
    09:00 +8°C° 0 mm 4 mps 766 mmHg 63%
    10:00 +11°C° 0 mm 4 mps 765 mmHg 59%
    11:00 +12°C° 0 mm 5 mps 764 mmHg 56%
    12:00 +13°C° 0 mm 5 mps 764 mmHg 55%
    13:00 +14°C° 0 mm 5 mps 763 mmHg 54%
    14:00 +15°C° 0 mm 6 mps 762 mmHg 53%
    15:00 +15°C° 0 mm 6 mps 762 mmHg 55%
    16:00 +15°C° 0 mm 6 mps 761 mmHg 57%
    17:00 +15°C° 0 mm 6 mps 760 mmHg 60%
    18:00 +14°C° 0 mm 7 mps 760 mmHg 64%
    19:00 +12°C° 0 mm 7 mps 760 mmHg 69%
    20:00 +11°C° 0 mm 7 mps 760 mmHg 73%
    21:00 +10°C° 0 mm 7 mps 759 mmHg 78%
    22:00 +10°C° 0 mm 7 mps 759 mmHg 83%
    23:00 +9°C° 0 mm 7 mps 759 mmHg 88%

    Day after tomorrow, 29 May, Tuesday

    Time Temperature Precipitation Wind Pressure Humidity
    00:00 +9°C° 0 mm 7 mps 758 mmHg 89%
    01:00 +9°C° 0 mm 7 mps 757 mmHg 91%
    02:00 +9°C° 0 mm 8 mps 756 mmHg 92%
    03:00 +10°C° 0.3 mm 8 mps 755 mmHg 93%
    04:00 +10°C° 0.3 mm 8 mps 754 mmHg 93%
    05:00 +11°C° 0.3 mm 9 mps 754 mmHg 94%
    06:00 +11°C° 0.4 mm 9 mps 753 mmHg 94%
    07:00 +11°C° 0.4 mm 9 mps 752 mmHg 93%
    08:00 +12°C° 0.4 mm 9 mps 752 mmHg 93%
    09:00 +12°C° 0.2 mm 9 mps 752 mmHg 89%
    10:00 +13°C° 0.2 mm 8 mps 752 mmHg 85%
    11:00 +13°C° 0.2 mm 8 mps 751 mmHg 82%
    12:00 +13°C° 0.2 mm 8 mps 752 mmHg 81%
    13:00 +12°C° 0.2 mm 9 mps 753 mmHg 81%
    14:00 +11°C° 0.2 mm 9 mps 753 mmHg 81%
    15:00 +11°C° 0 mm 9 mps 754 mmHg 78%
    16:00 +10°C° 0 mm 9 mps 755 mmHg 75%
    17:00 +10°C° 0 mm 8 mps 756 mmHg 72%
    18:00 +9°C° 0 mm 7 mps 756 mmHg 72%
    19:00 +8°C° 0 mm 6 mps 757 mmHg 71%
    20:00 +7°C° 0 mm 5 mps 758 mmHg 71%
    21:00 +7°C° 0 mm 5 mps 758 mmHg 70%
    22:00 +7°C° 0 mm 6 mps 758 mmHg 68%
    23:00 +5°C° 0 mm 7 mps 759 mmHg 67%

    30 May, Wednesday

    Time Temperature Precipitation Wind Pressure Humidity
    00:00 +5°C° 0 mm 7 mps 759 mmHg 67%
    01:00 +5°C° 0 mm 7 mps 760 mmHg 66%
    02:00 +5°C° 0 mm 7 mps 760 mmHg 66%
    03:00 +4°C° 0 mm 8 mps 760 mmHg 67%
    04:00 +4°C° 0 mm 8 mps 761 mmHg 68%
    05:00 +4°C° 0 mm 8 mps 761 mmHg 69%
    06:00 +4°C° 0 mm 8 mps 762 mmHg 67%
    07:00 +5°C° 0 mm 8 mps 762 mmHg 64%
    08:00 +5°C° 0 mm 9 mps 763 mmHg 62%
    09:00 +6°C° 0 mm 9 mps 763 mmHg 61%
    10:00 +6°C° 0 mm 9 mps 763 mmHg 59%
    11:00 +6°C° 0 mm 9 mps 762 mmHg 58%
    12:00 +7°C° 0 mm 8 mps 762 mmHg 57%
    13:00 +7°C° 0 mm 8 mps 762 mmHg 57%
    14:00 +8°C° 0 mm 7 mps 762 mmHg 56%
    15:00 +8°C° 0 mm 7 mps 762 mmHg 55%
    16:00 +8°C° 0 mm 6 mps 761 mmHg 55%
    17:00 +8°C° 0 mm 5 mps 761 mmHg 54%
    18:00 +8°C° 0 mm 4 mps 761 mmHg 55%
    19:00 +7°C° 0 mm 4 mps 761 mmHg 57%
    20:00 +7°C° 0 mm 3 mps 761 mmHg 58%
    21:00 +8°C° 0 mm 3 mps 761 mmHg 57%
    22:00 +7°C° 0 mm 4 mps 761 mmHg 56%
    23:00 +7°C° 0 mm 4 mps 760 mmHg 55%

    31 May, Thursday

    Time Temperature Precipitation Wind Pressure Humidity
    00:00 +7°C° 0 mm 4 mps 760 mmHg 57%
    01:00 +7°C° 0 mm 4 mps 760 mmHg 59%
    02:00 +7°C° 0 mm 4 mps 760 mmHg 61%
    03:00 +7°C° 0 mm 4 mps 760 mmHg 65%
    04:00 +7°C° 0 mm 4 mps 760 mmHg 68%
    05:00 +8°C° 0 mm 3 mps 760 mmHg 72%
    06:00 +9°C° 0 mm 3 mps 760 mmHg 70%
    07:00 +10°C° 0 mm 3 mps 760 mmHg 68%
    08:00 +12°C° 0 mm 2 mps 760 mmHg 66%
    09:00 +13°C° 0 mm 2 mps 760 mmHg 64%
    10:00 +14°C° 0 mm 2 mps 760 mmHg 61%
    11:00 +15°C° 0 mm 2 mps 759 mmHg 59%
    12:00 +15°C° 0 mm 2 mps 759 mmHg 58%
    13:00 +15°C° 0 mm 2 mps 759 mmHg 57%
    14:00 +16°C° 0 mm 2 mps 758 mmHg 57%
    15:00 +15°C° 0 mm 2 mps 758 mmHg 58%
    16:00 +15°C° 0 mm 2 mps 758 mmHg 59%
    17:00 +15°C° 0 mm 2 mps 758 mmHg 60%
    18:00 +13°C° 0 mm 3 mps 758 mmHg 61%
    19:00 +12°C° 0 mm 3 mps 758 mmHg 63%
    20:00 +11°C° 0 mm 4 mps 758 mmHg 64%
    21:00 +11°C° 0 mm 4 mps 758 mmHg 65%
    22:00 +11°C° 0 mm 3 mps 758 mmHg 65%
    23:00 +10°C° 0 mm 3 mps 757 mmHg 65%

    1 June, Friday

    Time Temperature Precipitation Wind Pressure Humidity
    00:00 +10°C° 0 mm 3 mps 757 mmHg 65%
    01:00 +10°C° 0 mm 3 mps 757 mmHg 65%
    02:00 +10°C° 0 mm 3 mps 757 mmHg 65%
    03:00 +9°C° 0 mm 3 mps 757 mmHg 66%
    04:00 +9°C° 0 mm 3 mps 758 mmHg 68%
    05:00 +9°C° 0 mm 3 mps 758 mmHg 69%
    06:00 +10°C° 0 mm 3 mps 758 mmHg 70%
    07:00 +10°C° 0 mm 3 mps 758 mmHg 71%
    08:00 +11°C° 0 mm 4 mps 759 mmHg 72%
    09:00 +12°C° 0 mm 3 mps 759 mmHg 71%
    10:00 +13°C° 0 mm 3 mps 758 mmHg 69%
    11:00 +14°C° 0 mm 3 mps 758 mmHg 68%
    12:00 +16°C° 0 mm 3 mps 758 mmHg 66%
    13:00 +17°C° 0 mm 3 mps 758 mmHg 63%
    14:00 +17°C° 0 mm 3 mps 758 mmHg 61%
    15:00 +17°C° 0 mm 4 mps 758 mmHg 63%
    16:00 +17°C° 0 mm 4 mps 758 mmHg 64%
    17:00 +17°C° 0 mm 4 mps 758 mmHg 66%
    18:00 +14°C° 0 mm 4 mps 758 mmHg 69%
    19:00 +13°C° 0 mm 4 mps 758 mmHg 73%
    20:00 +12°C° 0 mm 4 mps 758 mmHg 77%
    21:00 +11°C° 0 mm 4 mps 758 mmHg 77%
    22:00 +11°C° 0 mm 3 mps 758 mmHg 77%
    23:00 +10°C° 0 mm 3 mps 758 mmHg 77%
    Show more